Regional Weather Roundup
Issued by NWS

Home | Current Version | Previous Version | Graphics & Text | Print | Product List | Glossary On
Versions: 1 2 3 4 5 6 7 8 9 10 11 12 13 14 15 16 17 18 19 20 21 22 23 24 25 26 27 28 29 30 31 32 33 34 35 36 37 38 39 40 41 42 43 44 45 46 47 48 49 50
000
ASUS43 KMKX 270400
RWRWI

WISCONSIN REGIONAL WEATHER ROUNDUP
NATIONAL WEATHER SERVICE MILWAUKEE/SULLIVAN WI
1000 PM CST SUN FEB 26 2017

NOTE: "FAIR" INDICATES FEW OR NO CLOUDS BELOW 12,000 FEET WITH NO
SIGNIFICANT WEATHER AND/OR OBSTRUCTIONS TO VISIBILITY.

WIZ001-002-006>008-014>016-023>028-270500-
NORTHWEST WISCONSIN

CITY           SKY/WX    TMP DP  RH WIND       PRES   REMARKS
SUPERIOR ARPT  FAIR       8   4  84 CALM      29.95R
ASHLAND        MOCLDY    10   6  84 S5        29.96R WCI   2
HAYWARD        FAIR      14   7  73 CALM      29.94R
SIREN          FAIR      15   8  74 CALM      29.95R
CUMBERLAND     MOCLDY    19  12  73 CALM      29.93R
RICE LAKE      FAIR      20  13  73 CALM      29.96R
CHETEK         FAIR      20  11  70 CALM      29.95R
LADYSMITH      FAIR      17   9  69 CALM      29.95R
EAU CLAIRE     CLOUDY    19  14  81 CALM      29.96R
MENOMONIE      MOCLDY    20  13  73 S3        29.96R
NEW RICHMOND   MOCLDY    26  14  60 CALM      29.95R
OSCEOLA        CLOUDY    24  15  68 CALM      29.98R
$$

WIZ003>005-009-010-017-018-270500-
NORTH CENTRAL WISCONSIN

CITY           SKY/WX    TMP DP  RH WIND       PRES   REMARKS
MANITOWISH WTR FAIR       7   4  89 CALM      29.89R
ARBOR VITAE    FAIR      14  10  84 CALM        N/A
WOODRUFF       FAIR      14  10  84 CALM        N/A
RHINELANDER    FAIR       1  32 100 CALM      29.91R
EAGLE RIVER    FAIR      12   4  71 CALM      29.89R
LAND O LAKES   FAIR       4   1  89 CALM      29.90R
PHILLIPS       FAIR       9   5  84 CALM      29.91R
TOMAHAWK       FAIR      13   9  83 CALM      29.92R
MEDFORD        FAIR      22  11  62 NW3       29.91R
MERRILL        NOT AVBL
$$

WIZ029-030-035-036-043>047-270500-
CENTRAL WISCONSIN

CITY           SKY/WX    TMP DP  RH WIND       PRES   REMARKS
WAUSAU         FAIR      28  20  71 NW6       29.91R WCI  22
MOSINEE        CLEAR     27  21  80 SW7       29.93R WCI  19
MARSHFIELD     FAIR      25  19  78 W7        29.93R WCI  17
STEVENS POINT  FAIR      28  20  71 W7        29.94R WCI  21
WAUPACA        FAIR      32  20  62 W10       29.96R WCI  24
WAUTOMA        FAIR      29  22  75 W6          N/A  WCI  23
WISC RAPIDS    FAIR      29  22  75 W7        29.96R WCI  22
CAMP DOUGLAS   NOT AVBL
$$

WIZ011>013-019>022-031-037>040-048>050-270500-
NORTHEAST WISCONSIN

CITY           SKY/WX    TMP DP  RH WIND       PRES   REMARKS
ANTIGO         MOCLDY    24  17  74 N8        29.90R WCI  16
SHAWANO        MOCLDY    32  20  61 SW3       29.94R
OCONTO         MOCLDY    29  19  66 W3        29.93R
STURGEON BAY   FAIR      30  21  69 W5        29.93R WCI  25
GREEN BAY      FAIR      33  21  61 W8        29.94R WCI  26
MANITOWOC      NOT AVBL
APPLETON       PTCLDY    30  18  59 W8        29.93R WCI  23
CLINTONVILLE   FAIR      32  19  59 W6        29.93R WCI  26
OSHKOSH        FAIR      32  21  64 W6        29.96R WCI  26
$$

WIZ032>034-041-042-053>061-270500-
SOUTHWEST WISCONSIN

CITY           SKY/WX    TMP DP  RH WIND       PRES   REMARKS
LA CROSSE      FAIR      31  23  72 W8        30.01R WCI  23
SPARTA         FAIR      29  24  81 W3        29.99R
VIROQUA        FAIR      27  23  87 W6        29.98R WCI  20
BOSCOBEL       FAIR      29  24  82 SW3       30.02R
PRAIRIE DU CHI FAIR      31  24  75 CALM      30.02R
PLATTEVILLE    FAIR      32  25  76 CALM      30.01R
$$

WIZ056-057-062-063-064-067-068-270500-
SOUTH CENTRAL WISCONSIN

CITY           SKY/WX    TMP DP  RH WIND       PRES   REMARKS
REEDSBURG      FAIR      31  24  74 W6        29.98R WCI  25
BARABOO/DELLS  FAIR      31  22  68 W7        29.97R WCI  25
LONE ROCK      NOT AVBL
MINERAL POINT  FAIR      32  28  86 W5        29.99R WCI  27
MADISON        FAIR      32  23  69 W3        29.99R
MIDDLETON      FAIR      32  25  76 W6        30.00R WCI  26
WATERTOWN      FAIR      32  24  72 SW5       29.97R WCI  28
MONROE         FAIR      32  25  74 W8        29.99R WCI  25
JANESVILLE     FAIR      34  25  69 SW7       30.00R WCI  28
$$

WIZ051-052-058>065-066-070>072-270500-
SOUTHEAST WISCONSIN

CITY           SKY/WX    TMP DP  RH WIND       PRES   REMARKS
MILWAUKEE      FAIR      37  24  59 SW7       29.99R WCI  32
WAUKESHA       FAIR      32  23  69 SW7       29.99R WCI  26
MILWAUKEE/TIMM FAIR      34  21  60 SW7       29.99R WCI  28
RACINE         FAIR      37  27  67 SW8       30.02R WCI  31
KENOSHA        FAIR      35  28  75 W9        30.01R WCI  28
FOND DU LAC    FAIR      32  21  64 SW7       29.97R WCI  26
SHEBOYGAN      FAIR      31  23  72 SW8       29.96R WCI  23
WEST BEND      FAIR      34  23  64 W7        29.96R WCI  28
JUNEAU         FAIR      33  23  67 W9        29.97R WCI  25
$$

LSZ147-162-270500-
LAKE SUPERIOR

STATION/POSITION TIME  TEMP    WIND        PRES    WAVE
                       AIR SEA DIR/SP/G            HT/PER
                 (UTC) (F)     (DEG/KT/KT) (MB)    (FT/S)
DEVILS ISLAND    0300   25     270/ 15/ 18 1014.5R
PORT WING        0340   14     180/  5/  5 1014.2R
SAXON HARBOR     0340   15     200/  5/  6 1014.2R
$$

LMZ867-665-643>646-270500-
LAKE MICHIGAN

STATION/POSITION TIME  TEMP    WIND        PRES    WAVE
                       AIR SEA DIR/SP/G            HT/PER
                 (UTC) (F)     (DEG/KT/KT) (MB)    (FT/S)
CHAMBERS ISLAND  0340   30     310/  9/ 11 1013.2R
NORTHPORT PIER   0340   30     330/ 14/ 16 1013.5R
SISTER BAY       0320   28      10/ 11/ 12   N/A
KEWAUNEE LAKESHO 0330   35     270/  3/  5 1013.1R
SHEBOYGAN LAKESH 0300   36     220/  9/ 10 1014.3R
PORT WASHINGTON  0340   34     250/  3/  4 1015.9R
MILWAUKEE LAKESH 0320   38     210/  7/  8   N/A
KENOSHA   LAKESH 0300   40     230/  4/  7 1015.6
$$

TC  - TEMPERATURE IN CELSIUS
VSB - VISIBILITY IN STATUTE MILES
WCI - WIND CHILL INDEX
HX  - HEAT INDEX





USA.gov is the U.S. government's official web portal to all federal, state and local government web resources and services.